COSMOS 2535 DEB, 44712

Orbit data source: Space-Track

COSMOS 2535 DEB, 44712 is space debris in SSO originally from a launch on Wed, 10 Jul 2019 UTC launched from the Plesetsk Missile And Space Complex (PKMTR). Debris objects in space refer to the collection of defunct objects orbiting the Earth. Examples of debris include non-operational satellites, rocket bodies, and fragments generated from explosions, collisions, or faulty payload assembly.

Loading next visibility...
Identifier
44712, 2019-039P
Orbit
SSO
Country
Flag of CISCIS
Related business
Manufacturer
Unknown
Mission
Spacecraft
Bus & Motor
Unknown
Mass
Unknown
Launch date (UTC)
2019-07-10 (7 years ago)
Launch vehicle
Unknown
Launch site
Plesetsk Missile And Space Complex (PKMTR)
Object type
Payload
Rocket body
Debris
Shape & HBR
Unknown shape, 0.1 m
Radar Cross Section
Small (<0.1 m²)

Expand to show TLE details & history
Last TLE update: 4 days ago

TLE from 4 days ago
0 COSMOS 2535 DEB
1 44712U 19039P   26119.27220720  .00003035  00000-0  31607-3 0  9992
2 44712  97.6790 120.0006 0038667 167.2707 192.9497 14.89994881355204
Epoch: 2026-04-29T06:31Z
TLE epoch observation values (Epoch: 2026-04-29T06:31:58.702Z)
Latitude
0.00003°
Longitude
164.77046°
Altitude
627.293 km
Speed
7.531 km/s
True Right ascension
08h 00m 00s
True Declination
0° 00' 00"
Sunlit
Object was in daylight at epoch
Visualization orbit readout
Latitude
Unknown
Longitude
Unknown
Altitude
Unknown
Speed
Unknown
Apparent Right ascension
Unknown
Apparent Declination
Unknown
Sunlit
N/A
Visualization observer readout
Local Sidereal Time
06:47:14
Azimuth
Unknown
Elevation
Unknown
Doppler factor
Unknown
Orbital elements
Apogee altitude
621.932 km
Perigee altitude
568.006 km
Semi-major axis
6,973.106 km
Eccentricity
0.00387
Inclination
97.679°
RAAN
120.0006°
Arg. of periapsis
167.2707°
True anomaly
192.85087°
Mean anomaly
192.9497°
Eccentric anomaly
192.90024°
Mean motion
3.72738 °/min
Orbital period
96.58 mins
BSTAR
0.00031607
Loading maneuver chart data...
Computing Atmospheric mass density...
Loading historical data...
Loading historical data...
Loading historical data...
Loading historical data...
Loading historical data...
Loading historical data...
Loading historical data...

Documentation

Showing up to 5 results
|